SCP
0 -0 -0 -1 -0 0 0 0 0 0 -0 -0 -0 -0 -0 -0 -0 -0 -0 0 0 0 0 0 0 0 0 0 0 0 0 0
0 -0 -0 -0 -0 0 0 0 0 0 0 -0 -0 -0 -0 -0 -0 -0 -0 -0 0 0 0 0 0 0 0 0 0 0 0 0
0 0 -0 -0 -0 0 0 0 0 0 0 0 -0 -0 -0 -0 -0 0 0 0 0 0 0 0 0 0 0 0 0 0 0 0
0 0 0 -0 0 -0 -0 -0 -0 -0 -0 -0 0 -0 -0 -0 -0 0 0 0 0 0 0 0 0 0 0 0 0 0 0 0
0 0 0 0 -0 -0 -0 -0 -1 -1 -0 -0 -0 0 -0 -0 0 -0 0 0 0 0 0 0 0 0 0 0 0 0 0 0
0 0 0 0 0 0 -0 -0 -0 -0 -0 -0 -0 0 0 -0 -0 -0 0 0 0 0 0 0 0 0 0 0 0 0 0 0
0 0 0 0 0 0 0 -0 -0 -0 -0 -0 -0 -0 -0 -0 -0 0 0 0 0 0 0 0 0 0 0 0 0 0 0 0
0 0 0 0 0 0 0 0 0 -0 -0 -0 -0 0 0 0 0 0 0 0 0 0 0 0 0 0 0 0 0 0 0 0
0 0 0 0 1 1 0 0 0 0 0 0 0 0 0 0 0 0 0 0 0 0 0 0 0 0 0 0 0 0 0 0
0 0 0 0 0 1 1 0 0 0 0 0 0 0 0 0 0 0 0 0 0 0 0 0 0 0 0 0 0 0 0 0
0 0 0 -0 1 1 1 1 1 0 0 0 0 0 0 0 0 0 0 0 0 0 0 0 0 0 0 0 0 0 0 0
0 0 0 0 0 0 0 0 1 0 0 0 0 0 0 0 0 0 0 0 0 0 0 0 0 0 0 0 0 0 0 0
0 0 0 0 0 1 1 1 0 0 0 0 0 0 0 0 0 0 0 0 0 0 0 0 0 0 0 0 1 0 0 0
0 0 0 0 0 0 2 0 1 0 0 0 0 0 0 0 0 0 0 0 0 0 0 0 0 0 1 1 1 1 1 1
0 0 0 0 -0 -0 1 3 1 1 0 0 0 -0 0 0 0 0 0 0 0 0 0 0 0 1 1 1 1 1 1 1
0 0 0 0 0 -0 -0 0 1 0 0 0 0 0 0 0 0 0 0 0 0 1 1 1 1 1 1 2 2 2 1 1
0 0 0 0 0 0 -0 0 0 0 0 -0 -0 0 0 0 0 0 1 0 1 1 2 2 1 1 1 2 2 2 2 2
0 0 0 0 0 0 0 0 -0 -0 -1 1 0 0 1 1 0 0 0 1 1 3 2 2 2 1 2 3 2 3 2 1
0 0 0 0 0 0 0 0 0 -0 -0 -0 -1 -1 1 1 1 1 1 2 3 1 3 3 3 2 2 3 3 2 3 3
Wind_Speed_500mb
51 60 57 59 60 62 63 61 56 52 48 45 43 40 36 33 29 25 22 19 17 14 12 11 9 6 4 3 2 1 4 4
54 63 65 64 62 63 64 64 59 54 50 47 43 38 34 31 27 24 20 17 15 12 12 11 10 9 9 8 5 4 3 3
57 58 70 69 65 63 65 63 60 56 54 50 44 39 34 31 28 25 21 18 17 16 15 14 14 13 13 13 11 10 9 7
55 54 70 73 69 66 65 66 63 58 55 51 47 42 36 31 29 28 23 21 20 19 18 17 16 16 15 17 17 16 15 14
47 50 54 76 75 71 69 67 66 63 57 52 49 45 39 35 32 31 27 26 25 24 22 20 19 20 20 22 22 24 22 20
43 47 50 58 66 72 70 69 66 63 61 56 51 47 42 40 38 38 33 32 29 27 27 25 24 24 25 28 29 29 27 20
36 41 45 51 52 55 53 56 68 65 62 59 55 53 49 46 41 37 37 33 33 32 33 31 30 29 32 28 27 34 32 23
33 40 41 46 48 51 51 48 49 55 59 59 60 57 53 43 41 42 31 36 38 36 38 34 36 35 30 27 27 27 26 27
18 36 50 47 55 54 46 48 44 47 46 47 55 62 56 52 48 40 33 28 32 27 30 29 27 30 29 32 33 31 31 30
4 6 30 53 57 65 64 58 65 56 49 46 48 57 60 55 50 44 40 34 29 26 27 29 30 32 30 32 33 32 31 33
10 21 15 34 50 55 63 75 71 69 63 61 50 55 63 60 53 45 44 42 38 34 29 29 28 30 30 28 31 32 31 31
25 38 31 18 24 45 56 73 72 74 78 77 66 66 69 66 58 52 46 42 36 38 41 37 40 39 34 31 32 29 28 29
24 47 38 35 16 19 41 57 65 73 73 73 77 86 74 69 60 60 51 46 39 41 38 39 38 32 31 28 28 26 25 26
16 34 47 62 40 21 13 29 46 60 70 63 67 58 73 73 66 59 49 48 26 39 44 45 41 34 33 30 29 27 26 26
18 11 43 88 68 49 44 38 30 43 50 58 79 93 77 82 73 66 57 48 15 50 49 51 53 35 35 29 28 28 26 26
19 18 14 33 69 83 66 32 26 29 40 48 48 65 67 100 80 70 62 36 37 50 54 59 58 49 38 29 27 28 26 31
14 19 21 19 33 72 82 88 71 63 44 42 47 53 72 87 86 79 65 42 48 62 62 59 62 42 37 33 24 24 25 24
15 18 17 22 26 33 69 89 106 76 75 72 64 71 66 81 83 78 64 51 58 67 52 57 56 55 37 33 36 26 14 21
19 21 24 24 23 20 31 53 80 97 79 98 79 85 60 65 80 80 69 68 76 50 49 57 54 52 44 37 29 44 40 18
Wind_Direction_500mb
193 186 182 181 182 181 179 177 175 175 175 175 175 175 177 178 178 178 178 179 177 175 174 175 183 201 229 240 188 119 102 129
193 187 183 183 183 185 180 178 178 181 181 181 181 185 187 189 190 191 193 193 199 203 207 206 210 217 242 256 262 272 248 204
191 185 186 183 185 190 187 184 183 184 186 188 189 194 199 200 203 206 208 212 220 223 227 229 229 230 244 258 271 272 271 263
187 186 189 185 187 193 194 193 191 190 193 194 196 202 208 212 216 220 221 228 233 237 239 240 245 244 247 257 265 271 272 268
191 189 190 189 190 196 199 198 197 198 199 202 204 207 214 221 226 230 232 237 242 246 247 248 252 252 252 254 259 261 264 269
198 195 192 191 195 196 204 205 204 205 206 208 212 215 219 227 233 236 236 245 248 255 256 255 256 256 256 254 255 257 260 260
209 202 200 193 197 195 200 207 209 211 213 215 218 223 224 229 235 237 244 248 252 256 259 257 259 257 256 253 260 254 254 248
220 213 208 202 199 196 199 206 210 212 217 220 222 226 229 230 235 239 237 251 252 258 262 264 262 259 252 243 243 247 253 247
227 225 233 218 205 200 202 208 209 211 216 219 225 228 229 231 237 239 237 239 252 244 260 246 246 244 250 245 244 242 248 246
31 274 233 238 227 225 220 212 218 218 224 223 226 233 235 238 242 245 240 240 241 242 247 249 248 244 255 254 249 248 246 248
227 309 307 247 237 232 235 239 234 232 229 232 231 234 241 239 242 244 249 256 257 256 248 251 249 251 260 250 252 248 248 247
219 221 299 309 247 242 236 237 242 243 249 242 240 243 245 250 249 254 254 256 261 271 266 261 261 263 257 260 255 249 253 246
216 210 246 277 300 265 248 236 235 248 248 244 249 248 248 249 251 256 256 268 276 263 272 270 265 257 254 251 252 250 250 240
267 216 241 259 270 312 325 257 250 251 255 253 256 242 256 253 252 254 253 255 281 292 277 273 264 254 254 251 249 250 247 239
247 255 208 242 258 275 281 303 283 259 247 248 240 254 255 254 251 257 248 241 274 269 285 271 267 256 250 248 251 251 249 246
250 259 263 216 251 260 259 267 283 275 277 255 261 259 240 249 256 257 253 247 230 257 271 266 266 260 252 242 242 255 255 254
272 275 267 257 223 230 252 253 269 281 278 279 276 257 249 249 247 248 249 244 247 244 250 254 257 250 248 236 234 253 262 251
328 295 280 273 247 240 240 239 254 265 273 268 272 281 256 242 241 240 244 242 248 243 258 253 252 249 240 235 237 228 256 254
305 308 300 287 291 265 241 238 231 253 263 270 269 269 263 248 233 233 236 237 244 245 255 250 250 240 231 235 237 235 227 246
Wind_Speed_850mb
51 60 57 59 60 62 63 61 56 52 48 45 43 40 36 33 29 25 22 19 17 14 12 11 9 6 4 3 2 1 4 4
54 63 65 64 62 63 64 64 59 54 50 47 43 38 34 31 27 24 20 17 15 12 12 11 10 9 9 8 5 4 3 3
57 58 70 69 65 63 65 63 60 56 54 50 44 39 34 31 28 25 21 18 17 16 15 14 14 13 13 13 11 10 9 7
55 54 70 73 69 66 65 66 63 58 55 51 47 42 36 31 29 28 23 21 20 19 18 17 16 16 15 17 17 16 15 14
47 50 54 76 75 71 69 67 66 63 57 52 49 45 39 35 32 31 27 26 25 24 22 20 19 20 20 22 22 24 22 20
43 47 50 58 66 72 70 69 66 63 61 56 51 47 42 40 38 38 33 32 29 27 27 25 24 24 25 28 29 29 27 20
36 41 45 51 52 55 53 56 68 65 62 59 55 53 49 46 41 37 37 33 33 32 33 31 30 29 32 28 27 34 32 23
33 40 41 46 48 51 51 48 49 55 59 59 60 57 53 43 41 42 31 36 38 36 38 34 36 35 30 27 27 27 26 27
18 36 50 47 55 54 46 48 44 47 46 47 55 62 56 52 48 40 33 28 32 27 30 29 27 30 29 32 33 31 31 30
4 6 30 53 57 65 64 58 65 56 49 46 48 57 60 55 50 44 40 34 29 26 27 29 30 32 30 32 33 32 31 33
10 21 15 34 50 55 63 75 71 69 63 61 50 55 63 60 53 45 44 42 38 34 29 29 28 30 30 28 31 32 31 31
25 38 31 18 24 45 56 73 72 74 78 77 66 66 69 66 58 52 46 42 36 38 41 37 40 39 34 31 32 29 28 29
24 47 38 35 16 19 41 57 65 73 73 73 77 86 74 69 60 60 51 46 39 41 38 39 38 32 31 28 28 26 25 26
16 34 47 62 40 21 13 29 46 60 70 63 67 58 73 73 66 59 49 48 26 39 44 45 41 34 33 30 29 27 26 26
18 11 43 88 68 49 44 38 30 43 50 58 79 93 77 82 73 66 57 48 15 50 49 51 53 35 35 29 28 28 26 26
19 18 14 33 69 83 66 32 26 29 40 48 48 65 67 100 80 70 62 36 37 50 54 59 58 49 38 29 27 28 26 31
14 19 21 19 33 72 82 88 71 63 44 42 47 53 72 87 86 79 65 42 48 62 62 59 62 42 37 33 24 24 25 24
15 18 17 22 26 33 69 89 106 76 75 72 64 71 66 81 83 78 64 51 58 67 52 57 56 55 37 33 36 26 14 21
19 21 24 24 23 20 31 53 80 97 79 98 79 85 60 65 80 80 69 68 76 50 49 57 54 52 44 37 29 44 40 18
Wind_Direction_850mb
193 186 182 181 182 181 179 177 175 175 175 175 175 175 177 178 178 178 178 179 177 175 174 175 183 201 229 240 188 119 102 129
193 187 183 183 183 185 180 178 178 181 181 181 181 185 187 189 190 191 193 193 199 203 207 206 210 217 242 256 262 272 248 204
191 185 186 183 185 190 187 184 183 184 186 188 189 194 199 200 203 206 208 212 220 223 227 229 229 230 244 258 271 272 271 263
187 186 189 185 187 193 194 193 191 190 193 194 196 202 208 212 216 220 221 228 233 237 239 240 245 244 247 257 265 271 272 268
191 189 190 189 190 196 199 198 197 198 199 202 204 207 214 221 226 230 232 237 242 246 247 248 252 252 252 254 259 261 264 269
198 195 192 191 195 196 204 205 204 205 206 208 212 215 219 227 233 236 236 245 248 255 256 255 256 256 256 254 255 257 260 260
209 202 200 193 197 195 200 207 209 211 213 215 218 223 224 229 235 237 244 248 252 256 259 257 259 257 256 253 260 254 254 248
220 213 208 202 199 196 199 206 210 212 217 220 222 226 229 230 235 239 237 251 252 258 262 264 262 259 252 243 243 247 253 247
227 225 233 218 205 200 202 208 209 211 216 219 225 228 229 231 237 239 237 239 252 244 260 246 246 244 250 245 244 242 248 246
31 274 233 238 227 225 220 212 218 218 224 223 226 233 235 238 242 245 240 240 241 242 247 249 248 244 255 254 249 248 246 248
227 309 307 247 237 232 235 239 234 232 229 232 231 234 241 239 242 244 249 256 257 256 248 251 249 251 260 250 252 248 248 247
219 221 299 309 247 242 236 237 242 243 249 242 240 243 245 250 249 254 254 256 261 271 266 261 261 263 257 260 255 249 253 246
216 210 246 277 300 265 248 236 235 248 248 244 249 248 248 249 251 256 256 268 276 263 272 270 265 257 254 251 252 250 250 240
267 216 241 259 270 312 325 257 250 251 255 253 256 242 256 253 252 254 253 255 281 292 277 273 264 254 254 251 249 250 247 239
247 255 208 242 258 275 281 303 283 259 247 248 240 254 255 254 251 257 248 241 274 269 285 271 267 256 250 248 251 251 249 246
250 259 263 216 251 260 259 267 283 275 277 255 261 259 240 249 256 257 253 247 230 257 271 266 266 260 252 242 242 255 255 254
272 275 267 257 223 230 252 253 269 281 278 279 276 257 249 249 247 248 249 244 247 244 250 254 257 250 248 236 234 253 262 251
328 295 280 273 247 240 240 239 254 265 273 268 272 281 256 242 241 240 244 242 248 243 258 253 252 249 240 235 237 228 256 254
305 308 300 287 291 265 241 238 231 253 263 270 269 269 263 248 233 233 236 237 244 245 255 250 250 240 231 235 237 235 227 246